This is the latest recevied weather packets stored in our database for station/object N6HGA-1. If no packets are shown the sender has not sent any weather packets the latest 10 day(s).
| Time | Temp. | Humidity | Pressure | Rain* | Wind** | Luminosity | Snow |
|---|---|---|---|---|---|---|---|
| 1788378156 | 27.78° C | 25% | - | 0 mm | - | - | - |
| 1788377855 | 27.22° C | 26% | - | 0 mm | - | - | - |
| 1788377555 | 27.22° C | 24% | - | 0 mm | - | - | - |
| 1788377255 | 27.22° C | 23% | - | 0 mm | - | - | - |
| 1788376954 | 27.22° C | 24% | - | 0 mm | - | - | - |
| 1788376653 | 27.22° C | 22% | - | 0 mm | - | - | - |
| 1788376353 | 27.22° C | 23% | - | 0 mm | - | - | - |
| 1788376054 | 27.22° C | 22% | - | 0 mm | - | - | - |
| 1788375757 | 27.22° C | 21% | - | 0 mm | - | - | - |
| 1788375447 | 27.22° C | 24% | - | 0 mm | - | - | - |
| 1788375146 | 27.22° C | 21% | - | 0 mm | - | - | - |
| 1788374844 | 27.22° C | 23% | - | 0 mm | - | - | - |
| 1788374544 | 27.22° C | 23% | - | 0 mm | - | - | - |
| 1788374242 | 27.22° C | 23% | - | 0 mm | - | - | - |
| 1788373942 | 26.67° C | 22% | - | 0 mm | - | - | - |
| 1788373641 | 26.67° C | 22% | - | 0 mm | - | - | - |
| 1788373640 | 26.67° C | 23% | - | 0 mm | - | - | - |
| 1788373640 | 26.11° C | 22% | - | 0 mm | - | - | - |
| 1788373341 | 26.67° C | 23% | - | 0 mm | - | - | - |
| 1788373041 | 26.11° C | 22% | - | 0 mm | - | - | - |
| 1788372740 | 26.11° C | 25% | - | 0 mm | - | - | - |
| 1788372443 | 25.56° C | 22% | - | 0 mm | - | - | - |
| 1788372132 | 26.11° C | 23% | - | 0 mm | - | - | - |
| 1788371829 | 26.11° C | 23% | - | 0 mm | - | - | - |
| 1788371529 | 26.11° C | 22% | - | 0 mm | - | - | - |
* Rain since midnight (hover to see other rain measurements)
** Current wind speed in m/s (hover to see current wind gust speed)